Location: Cargill Incorporated Elevator
(42.7294°N, 93.7333°W)
Time: 04:53:51
(UTC+00:00)

Cosmos 1821 Rocket - Pass Details

Date: 19 January 2026
Orbit: 943 x 1004 km, 82.9° (Epoch: 14 February)

Event Time Altitude Azimuth Distance (km) Brightness Sun altitude
Rises 23:38:13 0° 354° (N) 3,664 6.8 -5.3°
Reaches altitude 10° 23:40:46 10° 358° (N) 2,705 6.1 -5.7°
Maximum altitude 23:46:54 64° 80° (E) 1,047 4.0 -6.7°
Drops below altitude 10° 23:52:55 10° 162° (SSE) 2,658 6.3 -7.8°
Sets 23:55:25 0° 165° (SSE) 3,596 7.0 -8.2°
